Bartlesville, OK

7:27 AM CDT on August 27, 2016 (GMT -0500)
Bartlesville Municipal

Weather History for KBVO - March, 2014

Change the Weather History Date:

Thursday, March 13, 2014

  Actual Average Record
Temperature  
Mean Temperature 52 °F -  
Max Temperature 71 °F 62 °F 86 °F (1967)
Min Temperature 35 °F 37 °F -7 °F (1948)
Degree Days  
Heating Degree Days 12    
Growing Degree Days 2 (Base 50)    
Moisture  
Dew Point 22 °F    
Average Humidity 36    
Maximum Humidity 64    
Minimum Humidity 13    
Precipitation  
Precipitation 0.00 in - - ()
Sea Level Pressure  
Sea Level Pressure 30.09 in    
Wind  
Wind Speed 8 mph (SW)    
Max Wind Speed 16 mph    
Max Gust Speed 26 mph    
Visibility 10 miles    
Events      
Averages and records for this station are not official NWS values.
T = Trace of Precipitation, MM = Missing Value Source: NWS Daily Summary

Daily Weather History Graph

Daily Weather History Graph

Search for Another Location

Airport or City:

Trip Planner

Search our weather history database for the weather conditions in past years. The results will help you decide how hot, cold, wet, or windy it might be!

Date:

Astronomy

Mar. 13, 2014 Rise Set
Actual Time 7:37 AM CDT 7:29 PM CDT
Civil Twilight 7:12 AM CDT 7:55 PM CDT
Nautical Twilight 6:42 AM CDT 8:25 PM CDT
Astronomical Twilight 6:11 AM CDT 8:55 PM CDT
Moon 4:59 PM CDT (3/13) 5:41 AM CDT (3/13)
Length of Visible Light 12h 43m
Length of Day
11h 51m
Waxing Gibbous, 91% of the Moon is Illuminated
Mar 13
Waxing Gibbous
Mar 16
Full
Mar 23
Last Quarter
Mar 30
New
Apr 7
First Quarter

Hourly Weather History & Observations

Time (CDT) Temp. Windchill Dew Point Humidity Pressure Visibility Wind Dir Wind Speed Gust Speed Precip Events Conditions
12:53 AM 37.9 °F - 24.1 °F 57% 30.20 in 10.0 mi Calm Calm - N/A   Clear
1:53 AM 35.1 °F 32.2 °F 24.1 °F 64% 30.19 in 10.0 mi Variable 3.5 mph - N/A   Clear
2:53 AM 39.0 °F 32.8 °F 24.1 °F 55% 30.18 in 10.0 mi WSW 9.2 mph - N/A   Clear
3:53 AM 37.9 °F 31.5 °F 24.1 °F 57% 30.17 in 10.0 mi WSW 9.2 mph - N/A   Clear
4:53 AM 39.0 °F 32.3 °F 24.1 °F 55% 30.17 in 10.0 mi WSW 10.4 mph - N/A   Clear
5:53 AM 37.9 °F 30.9 °F 24.1 °F 57% 30.17 in 10.0 mi West 10.4 mph - N/A   Clear
6:53 AM 37.9 °F 30.9 °F 24.1 °F 57% 30.17 in 10.0 mi WSW 10.4 mph - N/A   Clear
7:53 AM 37.0 °F 31.0 °F 24.1 °F 59% 30.18 in 10.0 mi West 8.1 mph - N/A   Clear
8:53 AM 41.0 °F 35.8 °F 25.0 °F 53% 30.19 in 10.0 mi WSW 8.1 mph - N/A   Clear
9:53 AM 46.9 °F - 26.1 °F 44% 30.20 in 10.0 mi WSW 10.4 mph - N/A   Clear
10:53 AM 55.9 °F - 24.1 °F 29% 30.19 in 10.0 mi WSW 10.4 mph - N/A   Clear
11:53 AM 62.1 °F - 21.0 °F 21% 30.17 in 10.0 mi SW 12.7 mph 19.6 mph N/A   Clear
12:53 PM 64.9 °F - 19.0 °F 17% 30.14 in 10.0 mi SSW 13.8 mph 25.3 mph N/A   Clear
1:53 PM 69.1 °F - 19.9 °F 15% 30.11 in 10.0 mi SSW 16.1 mph 24.2 mph N/A   Clear
2:53 PM 70.0 °F - 18.0 °F 14% 30.06 in 10.0 mi SW 12.7 mph 21.9 mph N/A   Clear
3:53 PM 70.0 °F - 19.0 °F 14% 30.03 in 10.0 mi SSW 11.5 mph 26.5 mph N/A   Clear
4:53 PM 70.0 °F - 17.1 °F 13% 29.99 in 10.0 mi SSW 15.0 mph 21.9 mph N/A   Clear
5:53 PM 69.1 °F - 19.0 °F 15% 29.97 in 10.0 mi SSW 13.8 mph 20.7 mph N/A   Clear
6:53 PM 64.9 °F - 19.9 °F 18% 29.96 in 10.0 mi SSW 12.7 mph - N/A   Clear
7:53 PM 59.0 °F - 21.0 °F 23% 29.96 in 10.0 mi South 6.9 mph - N/A   Clear
8:53 PM 55.9 °F - 21.9 °F 27% 29.96 in 10.0 mi South 6.9 mph - N/A   Clear
9:53 PM 54.0 °F - 21.9 °F 29% 29.95 in 10.0 mi South 8.1 mph - N/A   Clear
10:53 PM 51.1 °F - 23.0 °F 33% 29.95 in 10.0 mi South 8.1 mph - N/A   Clear
11:53 PM 51.1 °F - 24.1 °F 35% 29.94 in 10.0 mi South 8.1 mph - N/A   Clear